Location: Glendale
(37.4556°N, 88.6714°W)
Time: 10:28:38
(UTC+00:00)

CZ-4 R/B - Pass Details

Date: 08 December 2019
Orbit: 533 x 598 km, 97.7° (Epoch: 24 January)

Event Time Altitude Azimuth Distance (km) Brightness Sun altitude
Rises 01:01:15 0° 194° (SSW) 2,731 5.1 -28.0°
Reaches altitude 10° 01:03:41 10° 208° (SSW) 1,829 4.4 -28.5°
Maximum altitude 01:06:57 24° 264° (W) 1,148 3.6 -29.1°
Drops below altitude 10° 01:10:11 10° 319° (NW) 1,813 4.3 -29.8°
Sets 01:12:36 0° 334° (NNW) 2,702 5.1 -30.3°
